Tracking 18784 objects as of 18-August-2017
HD Live streaming from Space Station
objects crossing your sky now

AMSAT OSCAR 40

Track AMSAT OSCAR 40 now!
AMSAT OSCAR 40 is classified as:


NORAD ID: 26609
Int'l Code: 2000-072B
Perigee: 1,151.9 km
Apogee: 58,683.9 km
Inclination: 6.6 °
Period: 1,146.6 minutes
Semi major axis: 36288 km
RCS: 1.8057 m2 (large)
Launch date: November 16, 2000
Source: Germany (GER)
Launch site: FRENCH GUIANA (FRGUI)
Uplink (MHz):
Downlink (MHz):
Beacon (MHz): 2401.323
Mode: 400bps PSK
Call sign:
Status: Inactive

Your satellite tracking list
Your tracking list is empty





NASA's NSSDC Master Catalog

Two Line Element Set (TLE):
1 26609U 00072B   17229.09590169 -.00000366 +00000-0 +00000-0 0  9998
2 26609 006.5706 208.4797 7926947 149.9157 300.6102 01.25586367076981
Source of the keplerian elements: AFSPC